Regional Weather Roundup
Issued by NWS

Home | Current Version | Previous Version | Graphics & Text | Print | Product List | Glossary On
Versions: 1 2 3 4 5 6 7 8 9 10 11 12 13 14 15 16 17 18 19 20 21 22 23 24 25 26 27 28 29 30 31 32 33 34 35 36 37 38 39 40 41 42 43 44 45 46 47 48 49
000
ASUS45 KBOU 010207
RWRCO

WEATHER ROUNDUP FOR COLORADO
NATIONAL WEATHER SERVICE DENVER/BOULDER CO
700 PM MST SAT FEB 28 2015

NOTE: "FAIR" INDICATES FEW OR NO CLOUDS BELOW 12000 FEET WITH NO
SIGNIFICANT WEATHER AND/OR OBSTRUCTIONS TO VISIBILITY.

COZ001>005-013-030-031-010300-
...NORTHWEST COLORADO...

CITY           SKY/WX    TMP DP  RH WIND       PRES   REMARKS
CRAIG          LGT SNOW  31  26  82 S7        29.79R WCI  24
HAYDEN         CLOUDY    28  23  80 S7        29.78R WCI  21
MEEKER         LGT SNOW  31  28  89 CALM      29.79R VSB 1
MOUNT WERNER   NOT AVBL
STEAMBOAT SPGS CLOUDY    29  21  71 CALM      29.78R
WALDEN         CLOUDY    19  12  73 N7        29.77S WCI  10
$$

COZ006>008-011-010300-
...WEST CENTRAL VALLEYS...

CITY           SKY/WX    TMP DP  RH WIND       PRES   REMARKS
GRAND JUNCTION PTCLDY    36  29  75 SE10      29.80R
MONTROSE       FLURRIES  35  30  82 S12       29.84R WCI  27
EAGLE          FLURRIES  34  27  75 W5        29.82  WCI  30
RIFLE          CLOUDY    35  24  64 E5        29.80R WCI  31
DELTA          CLOUDY    37  34  92 N5        29.84R
NUCLA          MIX PCPN  34  32  93 S10       29.88R WCI  26
$$

COZ017>023-064>068-010300-
...SOUTHWEST COLORADO...

CITY           SKY/WX    TMP DP  RH WIND       PRES   REMARKS
DURANGO        CLOUDY    29  28  96 E6        29.89R WCI  23
CORTEZ         FOG       31  31 100 CALM      29.86R VSB 3/4
PAGOSA SPRINGS CLOUDY    29  29 100 CALM      29.89R FOG
TELLURIDE      FLURRIES  29  21  73 SW12G20   29.85R WCI  19
WOLF CREEK PAS SNOW      16  14  93 SW25G47   29.86R VSB 1/4 WCI  -3
$$

COZ009-010-012-014-032>034-037-058>063-010300-
...CENTRAL COLORADO...

CITY           SKY/WX    TMP DP  RH WIND       PRES   REMARKS
ASPEN          LGT SNOW  28  26  92 CALM      29.78R FOG
BUENA VISTA    LGT SNOW  25  23  90 SE9       29.83R WCI  16
COPPER MTN     LGT SNOW  19  12  73 W17G29    29.77R WCI   4
BERTHOUD PASS  LGT SNOW   9   3  78 W15G25    29.78R WCI  -8
COTTONWOOD PAS LGT SNOW  23  21  93 CALM      29.80R
GUNNISON       MOCLDY    25  19  80 CALM      29.86R
KREMMLING      MOCLDY    25  19  80 E3        29.80R
LEADVILLE      LGT SNOW  18  16  92 S9        29.78R FOG     WCI   7
SALIDA         CLOUDY    26  20  79 SE13      29.92R WCI  15
SUNLIGHT       LGT SNOW  23  19  86 CALM        N/A  VSB 3/4
WILKERSON PASS LGT SNOW  16  14  93 S3        29.83R
$$

COZ069>075-010300-
...SAN LUIS VALLEY/SANGRE DE CRISTO MOUNTAINS...

CITY           SKY/WX    TMP DP  RH WIND       PRES   REMARKS
ALAMOSA        MOCLDY    24  21  88 SW7       29.87R WCI  16
LA VETA PASS   LGT SNOW  21  19  93 SW7       29.84R VSB 1   WCI  13
SAGUACHE       CLOUDY    25  21  86 CALM      29.88R
$$

COZ035-036-038>040-010300-
...NORTHERN COLORADO FRONT RANGE...

CITY           SKY/WX    TMP DP  RH WIND       PRES   REMARKS
DENVER INTL AP MOCLDY    16  10  77 S3        29.97R
DMNS CITY PARK   N/A     19  11  72 E9        29.98S WCI   8
AURORA         MOCLDY    15  10  79 SE5       29.97R WCI   7
FRONT RANGE AP NOT AVBL
ERIE MUNI ARPT CLOUDY    23  15  71 CALM      29.99S
BOULDER MUN AP LGT SNOW  23  18  80 CALM      29.98R
CENTENNIAL     MOCLDY    17  10  74 NE3       29.95R
BROOMFIELD     MOCLDY    21  16  79 NW3       29.97R HAZE
FORT COLLINS   MOCLDY    21  16  79 S3        30.00S
LONGMONT       CLOUDY    25  17  72 W3        30.01S
$$

COZ041-046-047-076>085-087-088-010300-
...PIKES PEAK/PALMER DIVIDE AND SOUTHERN FOOTHILLS...

CITY           SKY/WX    TMP DP  RH WIND       PRES   REMARKS
COLO. SPRINGS  CLOUDY    16  12  84 CALM      29.95R FOG
A. F. ACADEMY  CLOUDY    16  12  86 S5        29.91S WCI   9
ELLICOTT       NOT AVBL
FALCON         LGT SNOW  15  14  94 CALM      29.92S
FORT CARSON    CLOUDY    16  12  83 SE5       29.96R WCI   9
LIMON          CLOUDY    14   9  80 CALM      29.98R
MONUMENT HILL  MOCLDY     9   5  85 NW3       29.89F
TRINIDAD       LGT SNOW  20  15  81 NE5       29.95R WCI  13
$$

COZ042>045-048>051-090-091-010300-
...NORTHEAST COLORADO...

CITY           SKY/WX    TMP DP  RH WIND       PRES   REMARKS
GREELEY ARPT   PTCLDY    25  10  54 E5        30.00R WCI  19
AKRON          MOCLDY    19  14  81 E7        29.99F WCI  10
BURLINGTON     CLOUDY    18  11  74 SE6       30.06R WCI  10
WRAY           CLOUDY    22  14  71 CALM      30.11R
STERLING       PTCLDY    23  18  80 CALM      30.04F
HOLYOKE        NOT AVBL
FORT MORGAN    PTCLDY    21  15  78 E5        30.03R WCI  14
$$

COZ086-089-092>099-010300-
...SOUTHEAST COLORADO...

CITY           SKY/WX    TMP DP  RH WIND       PRES   REMARKS
PUEBLO         CLOUDY    19  12  74 SE5       30.02R WCI  12
LA JUNTA       PTCLDY    17  13  84 N6        30.05R WCI   9
LAMAR          MOCLDY    21  16  81 CALM      30.06R
SPRINGFIELD      N/A     19  14  81 N9        30.02R WCI   8
$$


USA.gov is the U.S. government's official web portal to all federal, state and local government web resources and services.